Location: Llanfaelog
(53.2333°N, 4.4667°W)
Time: 03:49:57
(UTC+00:00)

Daily predictions for brighter satellites

Satellite Brightness Start Highest point End
(mag) Time Altitude Azimuth Time Altitude Azimuth Time Altitude Azimuth
USA 215 4.5 03:22:06 10° E 03:25:42 36° E 03:25:42 36° E
Cosmos 1943 Rocket 3.7 04:06:39 29° SE 04:07:38 31° ESE 04:12:32 10° NE
CZ-2C R/B 4.3 04:06:38 10° ESE 04:11:22 31° ENE 04:13:24 24° NNE
CENTAUR R/B 3.5 04:16:08 36° SE 04:17:24 40° ESE 04:23:56 10° NE
NOSS 3-2 (A) 3.9 04:27:50 53° SE 04:28:06 53° SE 04:34:28 10° NE
Cosmos 2278 Rocket 3.4 04:33:50 32° NNE 04:33:50 32° NNE 04:36:56 10° NNE
Meteor 2-3 Rocket 4.4 04:38:17 10° S 04:43:46 54° E 04:49:22 10° NNE
Cosmos 921 Rocket 4.4 04:50:35 34° SE 04:50:35 34° SE 04:53:13 10° SSE
DNEPR-1 R/B 4.2 04:53:14 62° E 04:53:14 62° E 04:57:56 10° SE
Meteor 1-26 Rocket 4.2 04:53:50 60° N 04:55:01 86° ENE 05:00:51 10° SSE
Cosmos 1812 4.5 04:56:57 29° SE 04:56:57 29° SE 04:59:10 10° SSE
H-2A R/B 4.5 04:55:22 10° ESE 04:58:30 20° ENE 05:01:42 10° N
Cosmos 1151 Rocket 3.8 05:01:35 45° NE 05:02:19 50° ENE 05:06:35 10° SSE
USA 238 DEB 4.0 05:00:10 28° SSW 05:03:42 61° SE 05:10:30 10° NE
USA 238 4.0 05:00:14 27° SSW 05:03:49 60° SE 05:10:36 10° NE
Cosmos 2344 3.4 05:03:34 43° SW 05:06:23 88° SE 05:14:33 10° NE
Cosmos 1816 Rocket 4.3 05:07:03 19° SSW 05:11:42 76° WNW 05:18:04 10° N
USA 215 3.2 05:05:13 10° SE 05:11:43 68° SSW 05:13:04 55° W
Cosmos 2297 Rocket 4.2 05:09:40 14° N 05:12:30 20° NNE 05:16:38 10° ENE
Cosmos 2279 Rocket 4.3 05:06:38 10° N 05:12:48 63° ENE 05:18:56 10° SSE
Meteor 1-31 Rocket 4.3 05:09:15 10° NNE 05:12:53 36° E 05:16:29 10° SSE
Cosmos 1328 Rocket 4.4 05:12:41 25° N 05:14:59 48° ENE 05:19:13 10° SSE
METEOR-M 4.4 05:11:23 10° N 05:15:42 52° NNW 05:15:42 52° NNW
Cosmos 2369 Rocket 3.0 05:16:37 10° S 05:21:58 49° ESE 05:27:22 10° NE
COSMO-SKYMED 1 2.4 05:21:32 10° SSE 05:25:48 82° SW 05:25:48 82° SW
H-2A R/B 3.0 05:22:41 10° NNE 05:26:23 65° ESE 05:30:06 10° S
Cosmos 1634 Rocket 3.9 05:21:39 10° NNW 05:27:57 74° W 05:34:10 10° S
Cosmos 836 Rocket 4.3 05:27:51 53° NW 05:29:06 78° WSW 05:34:20 10° SSE
Lacrosse 4 Rocket 3.8 05:33:37 13° N 05:34:45 14° NNE 05:37:09 10° NE
Cosmos 2263 Rocket 4.3 05:36:27 11° NNW 05:38:25 13° N 05:40:59 10° NE
Tsikada Rocket 3.9 05:33:21 10° SSW 05:39:30 62° WNW 05:45:47 10° N
YAOGAN 6 3.4 05:37:47 10° N 05:40:14 39° N 05:40:14 39° N
CZ-4B R/B 4.0 05:39:36 10° ESE 05:41:59 19° ENE 05:44:21 10° NNE
MOS 1-B Rocket 4.0 05:36:21 10° S 05:42:21 50° W 05:44:43 32° NW
Cosmos 1656 Rocket 4.4 05:40:22 10° S 05:45:36 53° ESE 05:50:55 10° NE
CZ-4C R/B 3.3 05:43:37 10° SSE 05:46:01 49° S 05:46:01 49° S
DMSP B5D2-2 4.3 05:42:13 10° SSE 05:47:24 70° ENE 05:52:36 10° NNW
Cosmos 2227 Rocket 4.0 05:44:04 12° NNW 05:48:03 23° NNE 05:52:29 10° E
Cosmos 1943 Rocket 2.2 05:48:15 29° WSW 05:51:06 60° NW 05:56:43 10° NNE
CZ-2C R/B 2.7 05:46:05 10° S 05:51:27 55° W 05:54:54 22° NNW
Cosmos 1486 Rocket 4.1 05:48:31 10° SSW 05:53:49 79° ESE 05:59:07 10° NNE
Cosmos 1515 Rocket 3.8 05:50:58 10° N 05:55:22 67° ENE 05:59:42 10° SSE
Meteor 2-15 4.4 05:50:26 10° N 05:56:33 85° E 06:02:37 10° SSE
FALCON 9 DEB 2.9 05:56:51 64° SSE 05:56:51 64° SSE 05:59:40 10° E
Cosmos 2180 Rocket 4.4 05:51:58 10° NNW 05:58:12 85° W 06:04:20 10° S
Meteor 1-27 Rocket 4.1 05:52:37 10° N 05:58:13 65° ENE 06:03:53 10° SSE
COSMOS 2487 4.1 05:59:58 15° N 06:02:10 29° NE 06:05:08 10° ESE
Cosmos 773 Rocket 4.0 05:58:38 19° NNW 06:02:33 86° ENE 06:07:45 10° SSE
FALCON 9 DEB 2.6 06:03:16 76° S 06:03:19 76° SSE 06:06:11 10° E
Iridium 2 3.7 05:59:41 10° SSW 06:03:25 54° W 06:07:09 10° N
Cosmos 2084 Rocket 3.7 06:04:32 38° NW 06:04:47 39° NNW 06:08:31 10° NE
FALCON 9 DEB 2.5 06:05:16 77° SSW 06:05:22 80° S 06:08:13 10° E
Cosmos 2297 3.9 06:03:08 23° WSW 06:06:32 50° NW 06:12:07 10° NNE
NOAA 11 4.5 06:01:46 10° NNE 06:07:16 71° ESE 06:12:44 10° S
SJ 16-02 3.7 06:04:04 10° SSE 06:07:43 26° E 06:11:23 10° NE
CENTAUR R/B 2.7 06:03:21 21° WSW 06:07:44 67° NW 06:15:20 10° NE
Alouette 2 Rocket 4.2 06:04:39 10° N 06:08:48 48° ENE 06:12:16 10° SE
Envisat 3.0 06:08:33 10° N 06:13:31 55° WNW 06:18:27 10° SW
SKYMED 2 4.3 06:10:18 10° SSW 06:14:09 31° W 06:14:25 30° W
SL-27 R/B 2.4 06:14:04 27° NNW 06:15:56 86° WSW 06:19:30 10° SSE
Meteor 2-8 Rocket 4.4 06:09:58 10° NNW 06:16:05 64° W 06:22:06 10° S
Cosmos 2278 Rocket 3.5 06:15:41 20° NW 06:16:33 21° NNW 06:20:46 10° NNE
Meteor 2-6 Rocket 4.3 06:12:03 11° NNW 06:17:04 48° W 06:22:12 10° SSW
Cosmos 1939 Rocket 4.0 06:15:08 10° NNE 06:18:59 45° E 06:22:44 10° S
NOSS 3-2 (A) 3.7 06:15:15 23° W 06:19:01 54° NNW 06:25:53 10° NE
CZ-4B R/B 4.3 06:17:47 10° N 06:22:04 50° WNW 06:26:23 10° SW
FALCON 9 DEB 2.7 06:21:30 40° WSW 06:22:24 76° SSE 06:25:18 10° E
Landsat 5 4.3 06:19:03 10° SSW 06:23:07 32° W 06:24:58 23° NW
Cosmos 2098 Rocket 3.4 06:20:12 10° SW 06:24:09 46° WNW 06:29:10 10° N
Aureole 1 Rocket 3.9 06:26:23 19° NNW 06:26:23 19° NNW 06:27:54 10° N
NOSS 3-2 (C) 3.5 06:21:05 13° WSW 06:26:26 67° NW 06:33:20 10° NE
Meteor 2-3 Rocket 4.4 06:22:16 10° SW 06:27:19 32° WNW 06:32:26 10° N
Cosmos 968 Rocket 3.8 06:23:37 10° SW 06:28:30 42° NW 06:33:22 10° NNE
Cosmos 1812 4.3 06:32:03 18° WSW 06:32:03 18° WSW 06:33:47 10° SW
Okean 3 Rocket 3.8 06:28:24 10° SSW 06:32:50 50° WNW 06:37:17 10° N
Meteor 1-10 Rocket 4.4 06:27:58 10° NNW 06:33:20 49° W 06:38:37 10° SSW
H-2A R/B 2.0 06:29:46 10° S 06:34:01 68° WSW 06:38:25 10° NNW
SJ-7 4.4 06:30:28 10° N 06:34:41 71° WNW 06:38:50 10° SSW
ATLAS 3B R/B 4.4 06:29:39 10° S 06:35:29 35° ESE 06:41:33 10° NE
ADEOS 3.5 06:32:26 10° NNE 06:37:38 66° WNW 06:42:48 10° SSW
Cosmos 158 Rocket 4.0 06:32:49 10° NNW 06:37:55 80° ENE 06:43:08 10° SSE
ATLAS 5 CENTAUR R/B 3.8 06:35:53 10° S 06:39:10 26° ESE 06:42:49 10° ENE
Cosmos 1151 Rocket 4.2 06:38:29 20° WNW 06:39:34 22° W 06:42:57 10° SW
Cosmos 1515 3.7 06:40:06 10° N 06:43:55 86° E 06:47:43 10° S
Okean 1 4.1 06:40:56 10° N 06:44:50 52° ENE 06:48:42 10° SSE
Meteor PRIRODA 3.5 06:41:28 10° N 06:45:03 62° WNW 06:48:38 10° SSW
Cosmos 1766 Rocket 4.1 06:41:56 10° SW 06:45:53 34° WNW 06:49:53 10° N
CZ-2C R/B 2.8 06:41:10 10° NNE 06:45:59 75° WNW 06:50:57 10° SSW
Cosmos 1354 Rocket 4.0 06:41:02 10° SSW 06:46:20 81° WNW 06:51:41 10° NNE
Meteor 1-31 Rocket 3.7 06:43:49 10° N 06:47:09 27° WNW 06:50:29 10° WSW
Cosmos 2263 4.2 06:46:39 10° SW 06:52:18 61° NW 06:58:02 10° NNE
USA 238 DEB 3.9 06:48:23 10° WSW 06:54:52 53° NNW 07:01:48 10° NE
USA 238 3.9 06:48:28 10° WSW 06:54:58 53° NNW 07:01:54 10° NE
USA 215 4.4 06:50:16 10° S 06:55:33 26° SW 07:00:24 12° WNW
OPS 6432 4.2 06:54:36 16° NW 06:56:49 72° NE 07:00:01 10° SE
FALCON 9 DEB 3.1 06:54:09 12° WSW 06:57:12 81° S 07:00:37 10° E
Cosmos 2297 Rocket 2.7 06:52:09 10° NNW 06:57:46 59° NE 07:03:22 10° SE
SMAP 3.1 06:54:30 10° NNE 06:59:13 88° ESE 07:03:52 10° SSW
H-2A R/B 4.2 06:57:48 10° NNW 07:00:05 16° WNW 07:02:23 10° W
Cosmos 1862 4.3 06:57:30 10° WSW 07:00:45 24° WNW 07:04:01 10° NNW
FengYun 1-2 T 4.2 06:56:53 10° NNE 07:02:25 83° WNW 07:07:54 10° SSW
COSMO-SKYMED 1 4.4 07:01:05 10° WSW 07:02:46 12° W 07:03:00 12° W
CZ-4 R/B 4.3 07:02:24 10° NE 07:04:56 16° E 07:07:26 10° SE
CZ-2D R/B 3.6 07:01:47 10° NNE 07:05:35 68° E 07:09:21 10° S
Cosmos 2369 Rocket 2.6 07:00:53 10° WSW 07:06:09 41° NW 07:11:28 10° NNE
CZ-4B R/B 3.1 07:07:26 10° N 07:10:47 37° WNW 07:14:06 10° SW
Cosmos 2228 Rocket 3.2 07:06:55 10° NNW 07:11:20 61° W 07:15:47 10° S
Cosmos 1538 Rocket 4.1 07:06:20 10° NNW 07:11:31 58° WSW 07:16:36 10° S
H-2A R/B 2.5 07:07:42 10° NNE 07:12:37 63° ESE 07:17:28 10° S
Nadezhda 4 Rocket 4.1 07:06:45 10° SSW 07:12:48 56° WNW 07:18:58 10° N
CZ-4B R/B 1.8 07:10:35 10° S 07:13:46 40° W 07:16:54 10° NNW
Cosmos 1607 4.0 07:07:56 10° NW 07:14:14 76° SW 07:20:22 10° SSE
Lacrosse 4 Rocket 2.8 07:10:38 10° NNW 07:14:42 34° NE 07:18:47 10° ESE
Meteor 2-4 Rocket 4.2 07:12:29 10° N 07:18:27 70° ENE 07:24:19 10° SSE
Meteor 1-19 Rocket 4.2 07:13:05 10° NNW 07:18:46 73° W 07:24:15 10° S
Cosmos 1408 Rocket 4.2 07:17:23 10° SW 07:21:15 31° WNW 07:25:07 10° N
Cosmos 2344 4.1 07:14:33 10° W 07:21:43 46° NNW 07:30:23 10° ENE
Cosmos 2263 Rocket 3.8 07:19:54 10° NNW 07:24:28 25° NE 07:29:02 10° E
USA 32 4.4 07:20:43 10° NNW 07:25:40 44° W 07:30:37 10° SSW
AQUARIUS 4.2 07:22:06 10° N 07:26:34 61° WNW 07:30:59 10° SSW
Cosmos 1092 Rocket 4.0 07:20:49 10° SSW 07:27:03 71° WNW 07:33:24 10° N
Cosmos 1743 Rocket 3.8 07:24:18 10° SSW 07:28:31 45° WNW 07:32:44 10° N
Cosmos 1656 Rocket 4.1 07:24:24 10° WSW 07:29:25 37° NW 07:34:30 10° NNE
PSLV R/B 3.8 07:25:38 10° N 07:29:30 67° WNW 07:33:27 10° SSW
Meteor 1-20 Rocket 4.2 07:24:25 10° SSW 07:29:59 71° WNW 07:35:43 10° N
deb Chang Zheng 4 4.3 07:27:07 10° NNE 07:31:22 58° ESE 07:35:34 10° S
FALCON 9 DEB 2.7 07:28:58 10° W 07:31:53 86° S 07:34:46 10° E
Cosmos 1428 Rocket 4.5 07:26:38 10° SSW 07:32:46 72° WNW 07:38:53 10° N
Cosmos 2227 Rocket 2.5 07:27:25 10° NNW 07:33:06 73° NE 07:38:45 10° SE
Cosmos 1680 Rocket 3.7 07:28:25 10° NNW 07:33:46 83° ENE 07:39:04 10° SSE
Cosmos 1943 Rocket 3.5 07:31:52 10° WNW 07:36:02 20° NNW 07:40:12 10° NNE
CZ-4B DEB 4.2 07:31:07 10° NNE 07:36:36 75° WNW 07:42:02 10° SSW
